Верхняя Амга

Россия / Республика Саха (Якутия)     59°38′57″N   127°06′54″E
темп.,
°C
ветер,
м/с
пор.,
м/с
влажн.,
%
обл.,
%
осадки,
мм/ч
давл.,
гПа
погр.,
м
27 февраля, сб
сб2700:00−30вюв119912 0.0 102819
03:00−30в119946 0.0 102619
06:00−31в119872 0.0 102519
09:00−28всв119586 0.0 102350
12:00−21вюв1291100 0.0 1021268
15:00−19вюв1295100 0.5 1017322
18:00−20всв1299100 0.8 1017104
21:00−21св0199100 1.6 101720
28 февраля, вс
вс2800:00−21зсз4997100 0.8 1018606
03:00−23зсз51094100 1.2 1020813
06:00−26зсз51093100 0.2 1022818
09:00−26зсз51191100 0.3 1024868
12:00−24зсз61188100 0.1 10261150
15:00−24зсз61187100 0.3 10261301
18:00−26зсз51089100 0.1 10291001
21:00−26з41091100 0.1 1030935
1 марта, пн
пн100:00−27зсз4991100 0.1 1031828
03:00−27з3893100 0.1 1031693
06:00−28з4993100 0.1 1031612
09:00−28з4993100 0.1 1032525
12:00−26з4789100 0.1 1031801
15:00−25зсз4686100 0.1 1030999
18:00−27з2593100 0.1 1030186
21:00−29з1297100 0.1 103019
2 марта, вт
вт200:00−31з1198100 0.0 103019
03:00−33зюз1110097 0.0 103019
06:00−35зюз1110086 0.0 103019
09:00−33юз119872 0.0 102930
12:00−26ююз129075 0.0 1026372
15:00−24ю128388 0.0 1024782
18:00−28всв1291100 0.0 102419
21:00−32всв129682 0.0 102619
3 марта, ср
ср300:00−34всв11992 0.0 102519
03:00−36всв111005 0.0 102519
06:00−37всв111000 0.0 102419
09:00−33всв11980 0.0 102434
12:00−26в128523 0.0 1021373
15:00−24всв228037 0.0 1019676
18:00−28св1293100 0.0 102019
21:00−32с2397100 0.0 102231